Terminal Aerodrome Forecast
Issued by NWS Charleston, WV

Current Version | Previous Version | Graphics & Text | Print | Product List | Glossary On
Versions: 1 2 3 4 5 6 7 8 9 10 11 12 13 14 15 16 17 18 19 20 21
000
FTUS41 KRLX 190200 AAA
TAFCRW
TAF AMD
KCRW 190232Z 1903/1924 VRB03KT P6SM BKN070
     FM190900 00000KT P6SM BKN030
     FM191500 32003KT P6SM SCT030 SCT250=

USA.gov is the U.S. government's official web portal to all federal, state and local government web resources and services.